Hourly Data Report for July 20, 2021

LYNN LAKE
MANITOBA
Current Station Operator: NAVCAN

56°51'50.000" N
101°04'34.000" W
356.60 m
5061645
71078
YYL

Download Data

Hourly Data (July 2021)
Hourly Data Report for July 20, 2021
TIME
LST
Temp Definition
°C
Dew Point Definition
°C
Rel Hum Definition
%
Precip. Amount Definition
mm

Wind Dir Definition
10's deg

Wind Spd Definition
km/h
Visibility Definition
km
Stn Press Definition
kPa
Hmdx Definition


Wind Chill Definition


Weather Definition


00:00 15.6 10.0 69 0.0 20 5 16.1 98.10     LegendNANA
01:00 14.7 10.6 76 0.0 24 5 16.1 98.08     LegendNANA
02:00 14.4 9.8 74 0.0 25 5 16.1 98.07     LegendNANA
03:00 12.9 9.6 80 0.0 23 8 16.1 98.06     LegendNANA
04:00 12.0 9.4 84 0.0 22 5 16.1 98.06     LegendNANA
05:00 11.1 8.9 86 0.0 23 8 16.1 98.06     LegendNANA
06:00 11.7 9.3 85 0.0 24 8 16.1 98.06     LegendNANA
07:00 13.7 10.1 79 0.0 24 5 16.1 98.05     LegendNANA
08:00 17.1 10.0 63 0.0 25 8 16.1 98.03     LegendNANA
09:00 19.7 9.1 50 0.0 30 11 16.1 97.99     LegendNANA
10:00 20.7 8.7 46 0.0   0 16.1 97.93     LegendNANA
11:00 21.5 9.8 47 0.0 LegendMM 4 16.1 97.88     LegendNANA
12:00 22.1 9.1 43 0.0 LegendMM 4 16.1 97.83     LegendNANA
13:00 23.1 9.7 42 0.0 LegendMM 11 16.1 97.76     LegendNANA
14:00 23.4 9.3 40 0.0 LegendMM 9 16.1 97.72     LegendNANA
15:00 24.1 10.5 42 0.0 LegendMM 8 16.1 97.65 26   LegendNANA
16:00 24.0 11.9 46 0.0 LegendMM 9 16.1 97.59 26   LegendNANA
17:00 23.3 11.2 46 0.0 17 11 16.1 97.56 25   LegendNANA
18:00 23.6 11.2 45 0.0 14 13 16.1 97.54 25   LegendNANA
19:00 23.0 11.4 47 0.0 17 11 16.1 97.50 25   LegendNANA
20:00 21.4 11.3 52 0.0 16 11 16.1 97.51     LegendNANA
21:00 19.8 10.9 56 0.0 17 8 12.9 97.49     LegendNANA
22:00 18.8 11.3 61 0.0 18 5 14.5 97.46     LegendNANA
23:00 18.3 11.1 63 0.0 18 5 16.1 97.44     LegendNANA

Notes on Data Quality.

Legend

  • E = Estimated
  • M = Missing
  • NA = Not Available*
  • [empty] = Indicates an unobserved value
Date modified: